• In Hungary
  • List of Countries
  • For 7 days
  • Water Temperature
  • Satellite Maps
  • Weather Map
  • News
  • Weather Widgets
  • user-avatar
    Login

    Hourly Weather Ermolkino

    Today, 20 July, Friday

    Time Temperature Precipitation Wind Pressure Humidity
    00:00 +21°C° 0.1 mm 1 mps 740 mmHg 84%
    01:00 +21°C° 0.1 mm 1 mps 740 mmHg 85%
    02:00 +21°C° 0 mm 1 mps 740 mmHg 86%
    03:00 +20°C° 0 mm 1 mps 741 mmHg 87%
    04:00 +20°C° 0 mm 1 mps 741 mmHg 88%
    05:00 +21°C° 0.5 mm 1 mps 741 mmHg 87%
    06:00 +22°C° 0.5 mm 1 mps 741 mmHg 86%
    07:00 +23°C° 0.5 mm 1 mps 741 mmHg 86%
    08:00 +24°C° 1.1 mm 1 mps 741 mmHg 81%
    09:00 +26°C° 1.1 mm 1 mps 741 mmHg 76%
    10:00 +27°C° 1.1 mm 2 mps 741 mmHg 71%
    11:00 +28°C° 1.2 mm 2 mps 741 mmHg 68%
    12:00 +28°C° 1.2 mm 2 mps 741 mmHg 66%
    13:00 +29°C° 1.2 mm 2 mps 741 mmHg 63%
    14:00 +29°C° 0.6 mm 1 mps 741 mmHg 62%
    15:00 +29°C° 0.6 mm 1 mps 741 mmHg 62%
    16:00 +29°C° 0.6 mm 1 mps 741 mmHg 61%
    17:00 +28°C° 0.7 mm 1 mps 741 mmHg 68%
    18:00 +27°C° 0.7 mm 2 mps 741 mmHg 74%
    19:00 +26°C° 0.7 mm 2 mps 741 mmHg 81%
    20:00 +25°C° 0.4 mm 2 mps 741 mmHg 83%
    21:00 +24°C° 0.4 mm 2 mps 741 mmHg 85%
    22:00 +21°C° 0.4 mm 2 mps 741 mmHg 87%
    23:00 +21°C° 0.1 mm 2 mps 741 mmHg 88%

    Tomorrow, 21 July, Saturday

    Time Temperature Precipitation Wind Pressure Humidity
    00:00 +20°C° 0.1 mm 2 mps 741 mmHg 90%
    01:00 +20°C° 0.1 mm 2 mps 741 mmHg 91%
    02:00 +19°C° 0.1 mm 3 mps 741 mmHg 93%
    03:00 +19°C° 0.1 mm 3 mps 741 mmHg 94%
    04:00 +19°C° 0.1 mm 3 mps 741 mmHg 95%
    05:00 +19°C° 0.2 mm 4 mps 741 mmHg 94%
    06:00 +19°C° 0.2 mm 4 mps 742 mmHg 93%
    07:00 +20°C° 0.2 mm 5 mps 742 mmHg 92%
    08:00 +21°C° 0 mm 5 mps 742 mmHg 89%
    09:00 +22°C° 0 mm 5 mps 742 mmHg 85%
    10:00 +23°C° 0 mm 5 mps 743 mmHg 82%
    11:00 +25°C° 0.3 mm 5 mps 743 mmHg 80%
    12:00 +24°C° 0.3 mm 6 mps 743 mmHg 78%
    13:00 +26°C° 0.3 mm 6 mps 743 mmHg 75%
    14:00 +24°C° 0.2 mm 6 mps 743 mmHg 75%
    15:00 +24°C° 0.2 mm 7 mps 743 mmHg 74%
    16:00 +24°C° 0.2 mm 7 mps 743 mmHg 73%
    17:00 +23°C° 0 mm 6 mps 743 mmHg 77%
    18:00 +22°C° 0 mm 5 mps 743 mmHg 80%
    19:00 +21°C° 0 mm 4 mps 743 mmHg 83%
    20:00 +20°C° 0 mm 4 mps 743 mmHg 82%
    21:00 +20°C° 0 mm 4 mps 744 mmHg 81%
    22:00 +19°C° 0 mm 4 mps 744 mmHg 80%
    23:00 +19°C° 0 mm 5 mps 744 mmHg 78%

    Day after tomorrow, 22 July, Sunday

    Time Temperature Precipitation Wind Pressure Humidity
    00:00 +19°C° 0 mm 5 mps 744 mmHg 77%
    01:00 +17°C° 0 mm 6 mps 744 mmHg 76%
    02:00 +17°C° 0 mm 6 mps 744 mmHg 77%
    03:00 +16°C° 0 mm 5 mps 744 mmHg 78%
    04:00 +15°C° 0 mm 5 mps 744 mmHg 79%
    05:00 +16°C° 0 mm 5 mps 744 mmHg 80%
    06:00 +16°C° 0 mm 6 mps 744 mmHg 81%
    07:00 +16°C° 0 mm 6 mps 744 mmHg 81%
    08:00 +17°C° 0 mm 6 mps 744 mmHg 79%
    09:00 +19°C° 0 mm 6 mps 745 mmHg 76%
    10:00 +20°C° 0 mm 7 mps 745 mmHg 74%
    11:00 +21°C° 0 mm 6 mps 745 mmHg 71%
    12:00 +22°C° 0 mm 6 mps 745 mmHg 69%
    13:00 +23°C° 0 mm 6 mps 745 mmHg 67%
    14:00 +23°C° 0 mm 6 mps 745 mmHg 66%
    15:00 +23°C° 0 mm 6 mps 745 mmHg 65%
    16:00 +23°C° 0 mm 5 mps 745 mmHg 64%
    17:00 +22°C° 0 mm 5 mps 745 mmHg 67%
    18:00 +22°C° 0 mm 4 mps 745 mmHg 71%
    19:00 +21°C° 0 mm 4 mps 745 mmHg 74%
    20:00 +19°C° 0 mm 4 mps 745 mmHg 73%
    21:00 +18°C° 0 mm 4 mps 745 mmHg 73%
    22:00 +17°C° 0 mm 4 mps 746 mmHg 72%
    23:00 +15°C° 0 mm 4 mps 746 mmHg 73%

    23 July, Monday

    Time Temperature Precipitation Wind Pressure Humidity
    00:00 +14°C° 0 mm 4 mps 746 mmHg 73%
    01:00 +13°C° 0 mm 4 mps 746 mmHg 74%
    02:00 +13°C° 0 mm 4 mps 747 mmHg 76%
    03:00 +12°C° 0 mm 4 mps 747 mmHg 77%
    04:00 +12°C° 0 mm 4 mps 747 mmHg 79%
    05:00 +12°C° 0 mm 4 mps 747 mmHg 78%
    06:00 +13°C° 0 mm 5 mps 747 mmHg 78%
    07:00 +14°C° 0 mm 5 mps 748 mmHg 77%
    08:00 +15°C° 0 mm 5 mps 748 mmHg 74%
    09:00 +17°C° 0 mm 5 mps 748 mmHg 71%
    10:00 +19°C° 0 mm 5 mps 748 mmHg 67%
    11:00 +20°C° 0 mm 5 mps 748 mmHg 65%
    12:00 +21°C° 0 mm 5 mps 748 mmHg 62%
    13:00 +22°C° 0 mm 5 mps 748 mmHg 59%
    14:00 +22°C° 0 mm 5 mps 748 mmHg 59%
    15:00 +22°C° 0 mm 4 mps 748 mmHg 59%
    16:00 +23°C° 0 mm 4 mps 748 mmHg 58%
    17:00 +22°C° 0 mm 4 mps 748 mmHg 63%
    18:00 +21°C° 0 mm 3 mps 748 mmHg 68%
    19:00 +21°C° 0 mm 2 mps 748 mmHg 73%
    20:00 +19°C° 0 mm 2 mps 748 mmHg 75%
    21:00 +17°C° 0 mm 2 mps 748 mmHg 78%
    22:00 +16°C° 0 mm 2 mps 748 mmHg 80%
    23:00 +15°C° 0 mm 2 mps 748 mmHg 80%

    24 July, Tuesday

    Time Temperature Precipitation Wind Pressure Humidity
    00:00 +15°C° 0 mm 2 mps 749 mmHg 80%
    01:00 +14°C° 0 mm 2 mps 749 mmHg 80%
    02:00 +14°C° 0 mm 2 mps 749 mmHg 81%
    03:00 +13°C° 0 mm 2 mps 749 mmHg 81%
    04:00 +13°C° 0 mm 2 mps 749 mmHg 82%
    05:00 +14°C° 0 mm 2 mps 749 mmHg 80%
    06:00 +15°C° 0 mm 2 mps 749 mmHg 78%
    07:00 +16°C° 0 mm 2 mps 750 mmHg 76%
    08:00 +18°C° 0 mm 2 mps 750 mmHg 72%
    09:00 +19°C° 0 mm 3 mps 750 mmHg 67%
    10:00 +21°C° 0 mm 3 mps 750 mmHg 63%
    11:00 +22°C° 0 mm 3 mps 750 mmHg 61%
    12:00 +24°C° 0 mm 3 mps 750 mmHg 58%
    13:00 +25°C° 0 mm 3 mps 750 mmHg 56%
    14:00 +25°C° 0 mm 3 mps 750 mmHg 57%
    15:00 +25°C° 0 mm 3 mps 749 mmHg 57%
    16:00 +25°C° 0 mm 3 mps 749 mmHg 58%
    17:00 +25°C° 0 mm 2 mps 749 mmHg 63%
    18:00 +24°C° 0 mm 2 mps 749 mmHg 68%
    19:00 +24°C° 0 mm 2 mps 749 mmHg 74%
    20:00 +21°C° 0 mm 2 mps 749 mmHg 78%
    21:00 +19°C° 0 mm 2 mps 749 mmHg 82%
    22:00 +18°C° 0 mm 2 mps 749 mmHg 85%
    23:00 +18°C° 0 mm 2 mps 749 mmHg 86%

    25 July, Wednesday

    Time Temperature Precipitation Wind Pressure Humidity
    00:00 +17°C° 0 mm 2 mps 749 mmHg 87%
    01:00 +17°C° 0 mm 2 mps 749 mmHg 88%
    02:00 +17°C° 0 mm 2 mps 749 mmHg 89%
    03:00 +17°C° 0 mm 2 mps 749 mmHg 90%
    04:00 +16°C° 0 mm 2 mps 750 mmHg 91%
    05:00 +18°C° 0 mm 2 mps 750 mmHg 88%
    06:00 +19°C° 0 mm 2 mps 750 mmHg 86%
    07:00 +20°C° 0 mm 2 mps 750 mmHg 83%
    08:00 +23°C° 0 mm 2 mps 750 mmHg 78%
    09:00 +24°C° 0 mm 2 mps 750 mmHg 72%
    10:00 +26°C° 0 mm 3 mps 750 mmHg 67%
    11:00 +27°C° 0 mm 3 mps 750 mmHg 63%
    12:00 +28°C° 0 mm 3 mps 750 mmHg 60%
    13:00 +29°C° 0 mm 3 mps 750 mmHg 57%
    14:00 +29°C° 0 mm 3 mps 750 mmHg 56%
    15:00 +29°C° 0 mm 3 mps 750 mmHg 56%
    16:00 +29°C° 0 mm 3 mps 749 mmHg 55%
    17:00 +28°C° 0 mm 3 mps 749 mmHg 60%
    18:00 +27°C° 0 mm 2 mps 749 mmHg 66%
    19:00 +26°C° 0 mm 2 mps 749 mmHg 71%
    20:00 +25°C° 0 mm 2 mps 749 mmHg 74%
    21:00 +23°C° 0 mm 2 mps 749 mmHg 78%
    22:00 +21°C° 0 mm 2 mps 749 mmHg 81%
    23:00 +20°C° 0 mm 2 mps 749 mmHg 82%
    Show more